RLTS1 YMES-YMES

Flight info

Callsign RLTS1
Flight time 0h 47m
Altitude 6000
Route ESL DCT R360 DCT ESL
Aircraft PC21/L-SDFGRWY/S

Departure

Time 2026-04-21 10:53
Airport RAAF Base East Sale (YMES)

Arrival

Time 2026-04-21 11:40
Airport RAAF Base East Sale (YMES)
Time Latitude Longitude Altitude Speed Heading
2026-04-21 10:38 -38.09901 147.13594 26 ft 0 kts 189°
2026-04-21 10:46 -38.09915 147.13590 29 ft 3 kts 204°
2026-04-21 10:46 -38.09910 147.13569 26 ft 4 kts
2026-04-21 10:46 -38.09873 147.13573 26 ft 4 kts 328°
2026-04-21 10:46 -38.09864 147.13523 26 ft 7 kts 278°
2026-04-21 10:47 -38.09856 147.13445 26 ft 11 kts 279°
2026-04-21 10:47 -38.09844 147.13350 24 ft 10 kts 278°
2026-04-21 10:47 -38.09818 147.13322 23 ft 5 kts
2026-04-21 10:47 -38.09801 147.13325 24 ft 0 kts
2026-04-21 10:48 -38.09769 147.13329 24 ft 6 kts 351°
2026-04-21 10:49 -38.09751 147.13265 23 ft 11 kts 279°
2026-04-21 10:49 -38.09738 147.13155 24 ft 14 kts 278°
2026-04-21 10:49 -38.09722 147.13031 20 ft 15 kts 278°
2026-04-21 10:49 -38.09707 147.12903 21 ft 12 kts 279°
2026-04-21 10:50 -38.09675 147.12832 22 ft 7 kts 335°
2026-04-21 10:50 -38.09657 147.12828 23 ft 0 kts
2026-04-21 10:51 -38.09634 147.12832 25 ft 9 kts
2026-04-21 10:51 -38.09576 147.12876 24 ft 10 kts 82°
2026-04-21 10:51 -38.09584 147.12967 23 ft 10 kts 98°
2026-04-21 10:51 -38.09586 147.12981 23 ft 0 kts 99°
2026-04-21 10:52 -38.09589 147.13005 25 ft 22 kts 98°
2026-04-21 10:52 -38.09660 147.13580 25 ft 105 kts 99°
2026-04-21 10:52 -38.09802 147.14708 209 ft 152 kts 98°
2026-04-21 10:53 -38.10005 147.16235 621 ft 192 kts 99°
2026-04-21 10:53 -38.10134 147.17960 1213 ft 200 kts 85°
2026-04-21 10:53 -38.09837 147.19695 1904 ft 204 kts 73°
2026-04-21 10:53 -38.09404 147.21474 2343 ft 222 kts 72°
2026-04-21 10:54 -38.08898 147.23425 2500 ft 239 kts 71°
2026-04-21 10:54 -38.08339 147.25471 2685 ft 249 kts 70°
2026-04-21 10:54 -38.07748 147.27518 3001 ft 252 kts 70°
2026-04-21 10:54 -38.07110 147.29636 3112 ft 262 kts 69°
2026-04-21 10:55 -38.06434 147.31811 3333 ft 266 kts 69°
2026-04-21 10:55 -38.05736 147.33998 3542 ft 269 kts 68°
2026-04-21 10:55 -38.05004 147.36234 3548 ft 279 kts 68°
2026-04-21 10:55 -38.04245 147.38529 3577 ft 285 kts 68°
2026-04-21 10:56 -38.03467 147.40855 3560 ft 286 kts 67°
2026-04-21 10:56 -38.02792 147.43225 3595 ft 285 kts 85°
2026-04-21 10:56 -38.03381 147.45509 3929 ft 279 kts 134°
2026-04-21 10:56 -38.05169 147.46350 4012 ft 287 kts 178°
2026-04-21 10:57 -38.06964 147.47194 3935 ft 290 kts 124°
2026-04-21 10:57 -38.06845 147.49602 3275 ft 307 kts 47°
2026-04-21 10:57 -38.04859 147.49870 2670 ft 323 kts 325°
2026-04-21 10:57 -38.03938 147.47280 2228 ft 325 kts 282°
2026-04-21 10:58 -38.02865 147.45359 3717 ft 269 kts 354°
2026-04-21 10:58 -38.01772 147.46934 2734 ft 296 kts 102°
2026-04-21 10:58 -38.03421 147.48309 1919 ft 327 kts 184°
2026-04-21 10:58 -38.05445 147.47020 1854 ft 310 kts 211°
2026-04-21 10:59 -38.07187 147.47105 2845 ft 268 kts 123°
2026-04-21 10:59 -38.06702 147.49143 2194 ft 290 kts 22°
2026-04-21 10:59 -38.05038 147.48000 1205 ft 329 kts 286°
2026-04-21 10:59 -38.05064 147.45094 1121 ft 313 kts 266°
2026-04-21 11:00 -38.04495 147.43019 2711 ft 253 kts 345°
2026-04-21 11:00 -38.03348 147.44308 1873 ft 279 kts 93°
2026-04-21 11:00 -38.04426 147.46494 1001 ft 309 kts 128°
2026-04-21 11:00 -38.04891 147.47096 4595 ft 133 kts 307°
2026-04-21 11:01 -38.04993 147.47277 1003 ft 295 kts 126°
2026-04-21 11:01 -38.05628 147.49607 1158 ft 281 kts 63°
2026-04-21 11:01 -38.03923 147.49971 1113 ft 297 kts 322°
2026-04-21 11:02 -38.03338 147.45533 3303 ft 35 kts 95°
2026-04-21 11:02 -38.03309 147.45855 1512 ft 224 kts 281°
2026-04-21 11:02 -38.03175 147.43279 1042 ft 291 kts 250°
2026-04-21 11:02 -38.04708 147.42448 1542 ft 266 kts 145°
2026-04-21 11:03 -38.05406 147.44595 791 ft 286 kts 98°
2026-04-21 11:03 -38.05820 147.46420 3272 ft 173 kts 143°
2026-04-21 11:03 -38.06496 147.47957 992 ft 291 kts 97°
2026-04-21 11:03 -38.05844 147.50124 1127 ft 283 kts 18°
2026-04-21 11:04 -38.04370 147.48814 1026 ft 304 kts 282°
2026-04-21 11:04 -38.04747 147.46169 824 ft 307 kts 252°
2026-04-21 11:04 -38.05351 147.43591 865 ft 303 kts 254°
2026-04-21 11:04 -38.05932 147.41040 900 ft 299 kts 253°
2026-04-21 11:05 -38.06580 147.38553 1035 ft 292 kts 242°
2026-04-21 11:05 -38.08126 147.37227 1363 ft 276 kts 174°
2026-04-21 11:05 -38.09384 147.38694 1249 ft 268 kts 95°
2026-04-21 11:05 -38.08694 147.40878 970 ft 277 kts 57°
2026-04-21 11:06 -38.07603 147.42891 929 ft 276 kts 56°
2026-04-21 11:06 -38.06513 147.44874 974 ft 272 kts 56°
2026-04-21 11:06 -38.05452 147.46864 988 ft 271 kts 57°
2026-04-21 11:06 -38.04322 147.48749 1140 ft 266 kts 38°
2026-04-21 11:07 -38.02607 147.48525 1290 ft 287 kts 311°
2026-04-21 11:07 -38.02525 147.46064 1149 ft 299 kts 248°
2026-04-21 11:07 -38.03306 147.43622 1148 ft 298 kts 248°
2026-04-21 11:07 -38.04142 147.41217 1268 ft 292 kts 233°
2026-04-21 11:08 -38.05837 147.40937 1392 ft 273 kts 131°
2026-04-21 11:08 -38.05979 147.43164 1348 ft 268 kts 71°
2026-04-21 11:08 -38.05366 147.45385 1308 ft 271 kts 70°
2026-04-21 11:08 -38.04687 147.47620 1349 ft 269 kts 60°
2026-04-21 11:09 -38.03059 147.48342 1465 ft 283 kts 339°
2026-04-21 11:09 -38.02141 147.46230 1447 ft 295 kts 265°
2026-04-21 11:09 -38.02794 147.43751 1387 ft 298 kts 247°
2026-04-21 11:09 -38.03613 147.41334 1376 ft 298 kts 243°
2026-04-21 11:10 -38.05145 147.39907 1556 ft 284 kts 174°
2026-04-21 11:10 -38.06374 147.41492 1284 ft 275 kts 90°
2026-04-21 11:10 -38.05922 147.43824 1297 ft 268 kts 72°
2026-04-21 11:10 -38.05350 147.46050 1357 ft 264 kts 72°
2026-04-21 11:11 -38.04792 147.48240 1379 ft 263 kts 71°
2026-04-21 11:11 -38.04209 147.50397 1606 ft 259 kts 70°
2026-04-21 11:11 -38.04365 147.52568 1700 ft 270 kts 132°
2026-04-21 11:11 -38.06191 147.52828 1470 ft 294 kts 206°
2026-04-21 11:12 -38.07551 147.50904 1387 ft 301 kts 245°
2026-04-21 11:12 -38.08200 147.48364 1324 ft 302 kts 254°
2026-04-21 11:12 -38.08758 147.45793 1324 ft 301 kts 255°
2026-04-21 11:12 -38.09286 147.43259 1608 ft 294 kts 255°
2026-04-21 11:13 -38.09402 147.40697 1733 ft 294 kts 287°
2026-04-21 11:13 -38.08200 147.38644 1414 ft 298 kts 328°
2026-04-21 11:13 -38.06239 147.37916 1031 ft 297 kts
2026-04-21 11:13 -38.04185 147.38074 853 ft 295 kts
2026-04-21 11:14 -38.02158 147.38476 665 ft 295 kts 11°
2026-04-21 11:14 -38.00147 147.38923 549 ft 293 kts 11°
2026-04-21 11:14 -37.98946 147.39180 3423 ft 63 kts 186°
2026-04-21 11:14 -37.99343 147.39097 1528 ft 173 kts 13°
2026-04-21 11:15 -37.97700 147.40156 766 ft 278 kts 77°
2026-04-21 11:15 -37.98846 147.41569 1008 ft 283 kts 191°
2026-04-21 11:15 -37.99948 147.39604 729 ft 298 kts 268°
2026-04-21 11:15 -37.99229 147.37248 988 ft 282 kts 306°
2026-04-21 11:16 -37.97903 147.35714 1798 ft 253 kts
2026-04-21 11:16 -37.97018 147.37334 1234 ft 276 kts 103°
2026-04-21 11:16 -37.98423 147.38950 790 ft 297 kts 167°
2026-04-21 11:16 -38.00498 147.38775 648 ft 298 kts 186°
2026-04-21 11:17 -38.02245 147.37829 1473 ft 276 kts 229°
2026-04-21 11:17 -38.03148 147.35676 1932 ft 273 kts 243°
2026-04-21 11:17 -38.04549 147.34317 2356 ft 267 kts 179°
2026-04-21 11:17 -38.05839 147.35746 1802 ft 277 kts 89°
2026-04-21 11:18 -38.04694 147.37643 1138 ft 297 kts 26°
2026-04-21 11:18 -38.02676 147.38344 780 ft 302 kts 13°
2026-04-21 11:18 -38.00624 147.38838 634 ft 299 kts 11°
2026-04-21 11:18 -37.98981 147.39193 2677 ft 28 kts
2026-04-21 11:19 -37.99522 147.39023 2728 ft 16 kts 30°
2026-04-21 11:19 -37.97824 147.39028 633 ft 301 kts 322°
2026-04-21 11:19 -37.98019 147.36869 789 ft 287 kts 201°
2026-04-21 11:19 -37.99611 147.37798 706 ft 275 kts 111°
2026-04-21 11:20 -37.99173 147.39950 831 ft 270 kts 40°
2026-04-21 11:20 -37.97780 147.41345 1658 ft 243 kts 66°
2026-04-21 11:20 -37.98401 147.43128 1678 ft 268 kts 158°
2026-04-21 11:20 -38.00093 147.42194 985 ft 307 kts 245°
2026-04-21 11:21 -38.00095 147.39473 544 ft 314 kts 277°
2026-04-21 11:21 -37.99940 147.38186 3573 ft 117 kts 91°
2026-04-21 11:21 -37.99868 147.37830 585 ft 305 kts 278°
2026-04-21 11:21 -37.98581 147.36448 971 ft 270 kts 21°
2026-04-21 11:22 -37.97638 147.38308 1144 ft 267 kts 82°
2026-04-21 11:22 -37.97367 147.40634 1212 ft 267 kts 79°
2026-04-21 11:22 -37.97059 147.42172 1289 ft 266 kts 76°
2026-04-21 11:22 -37.97475 147.44292 1364 ft 275 kts 142°
2026-04-21 11:23 -37.99356 147.44104 880 ft 305 kts 218°
2026-04-21 11:23 -38.00079 147.41685 804 ft 304 kts 274°
2026-04-21 11:23 -37.99946 147.39066 877 ft 293 kts 274°
2026-04-21 11:23 -37.99769 147.35735 1136 ft 278 kts 275°
2026-04-21 11:24 -37.99602 147.33341 1813 ft 263 kts 276°
2026-04-21 11:24 -37.99487 147.31841 2408 ft 253 kts 278°
2026-04-21 11:24 -37.98680 147.29977 2967 ft 249 kts 333°
2026-04-21 11:24 -37.97059 147.30269 2818 ft 265 kts 46°
2026-04-21 11:25 -37.96614 147.32571 1975 ft 297 kts 102°
2026-04-21 11:25 -37.97672 147.34932 1048 ft 317 kts 124°
2026-04-21 11:25 -37.98837 147.36887 2569 ft 99 kts 130°
2026-04-21 11:25 -37.98524 147.36263 4155 ft 99 kts 306°
2026-04-21 11:26 -37.99362 147.37640 592 ft 320 kts 116°
2026-04-21 11:26 -37.99254 147.40176 1027 ft 290 kts 56°
2026-04-21 11:26 -37.97656 147.41639 1252 ft 278 kts 34°
2026-04-21 11:26 -37.96839 147.43597 1619 ft 267 kts 101°
2026-04-21 11:27 -37.98251 147.44969 1362 ft 291 kts 179°
2026-04-21 11:27 -37.99934 147.43594 1073 ft 308 kts 242°
2026-04-21 11:27 -38.00121 147.40917 719 ft 312 kts 278°
2026-04-21 11:27 -37.99835 147.38245 675 ft 307 kts 278°
2026-04-21 11:28 -37.99537 147.35610 833 ft 294 kts 279°
2026-04-21 11:28 -37.99238 147.33193 1872 ft 260 kts 283°
2026-04-21 11:28 -37.98048 147.32021 2303 ft 248 kts 23°
2026-04-21 11:28 -37.97793 147.34068 1186 ft 291 kts 114°
2026-04-21 11:29 -37.98735 147.36417 733 ft 296 kts 117°
2026-04-21 11:29 -37.99638 147.37930 3470 ft 192 kts 154°
2026-04-21 11:29 -38.00652 147.39317 757 ft 310 kts 111°
2026-04-21 11:29 -38.00759 147.41750 1389 ft 275 kts 49°
2026-04-21 11:30 -37.99011 147.42511 1993 ft 268 kts 11°
2026-04-21 11:30 -37.97184 147.42862 2433 ft 265 kts
2026-04-21 11:30 -37.95599 147.41859 2165 ft 294 kts 290°
2026-04-21 11:30 -37.96476 147.39708 1305 ft 315 kts 202°
2026-04-21 11:31 -37.98605 147.39027 1166 ft 281 kts 189°
2026-04-21 11:31 -37.98636 147.38944 4392 ft 140 kts
2026-04-21 11:31 -37.99521 147.38686 527 ft 328 kts 189°
2026-04-21 11:31 -38.01532 147.38267 1525 ft 278 kts 185°
2026-04-21 11:32 -38.03294 147.38815 1718 ft 260 kts 140°
2026-04-21 11:32 -38.04311 147.40628 1932 ft 248 kts 110°
2026-04-21 11:32 -38.04629 147.42749 2015 ft 247 kts 80°
2026-04-21 11:32 -38.03428 147.44137 1648 ft 270 kts
2026-04-21 11:33 -38.01996 147.42749 1761 ft 280 kts 291°
2026-04-21 11:33 -38.02154 147.40356 1770 ft 284 kts 250°
2026-04-21 11:33 -38.02877 147.38000 1747 ft 287 kts 248°
2026-04-21 11:33 -38.03627 147.35640 1701 ft 290 kts 248°
2026-04-21 11:34 -38.04384 147.33270 1723 ft 290 kts 248°
2026-04-21 11:34 -38.05119 147.30876 1705 ft 291 kts 249°
2026-04-21 11:34 -38.05862 147.28485 1731 ft 291 kts 248°
2026-04-21 11:34 -38.06599 147.26127 1741 ft 290 kts 253°
2026-04-21 11:35 -38.06817 147.23595 1758 ft 290 kts 275°
2026-04-21 11:35 -38.06552 147.21049 1722 ft 291 kts 280°
2026-04-21 11:35 -38.06237 147.18517 1724 ft 291 kts 280°
2026-04-21 11:35 -38.05895 147.15985 1723 ft 291 kts 282°
2026-04-21 11:36 -38.05504 147.13473 1737 ft 290 kts 283°
2026-04-21 11:36 -38.04944 147.11013 1753 ft 289 kts 292°
2026-04-21 11:36 -38.04108 147.08707 1746 ft 289 kts 295°
2026-04-21 11:36 -38.04020 147.06231 1720 ft 291 kts 245°
2026-04-21 11:37 -38.05588 147.04789 1568 ft 286 kts 186°
2026-04-21 11:37 -38.07474 147.05192 1445 ft 277 kts 152°
2026-04-21 11:37 -38.08776 147.06880 1225 ft 272 kts 110°
2026-04-21 11:37 -38.09119 147.09280 620 ft 282 kts 98°
2026-04-21 11:38 -38.09424 147.11760 247 ft 284 kts 99°
2026-04-21 11:38 -38.09702 147.14177 467 ft 249 kts 75°
2026-04-21 11:38 -38.08817 147.13949 950 ft 169 kts 282°
2026-04-21 11:38 -38.08645 147.12585 995 ft 150 kts 282°
2026-04-21 11:39 -38.08580 147.11316 887 ft 138 kts 250°
2026-04-21 11:39 -38.09250 147.10959 580 ft 111 kts 136°
2026-04-21 11:39 -38.09446 147.11893 244 ft 115 kts 98°
2026-04-21 11:39 -38.09570 147.12854 71 ft 107 kts 98°
2026-04-21 11:40 -38.09669 147.13660 27 ft 75 kts 99°
2026-04-21 11:40 -38.09741 147.14235 29 ft 57 kts 98°
2026-04-21 11:40 -38.09790 147.14626 20 ft 24 kts 98°
2026-04-21 11:40 -38.09851 147.14718 18 ft 11 kts 217°
2026-04-21 11:41 -38.09893 147.14650 19 ft 9 kts 233°
2026-04-21 11:41 -38.09915 147.14587 21 ft 9 kts 276°
2026-04-21 11:41 -38.09905 147.14507 23 ft 9 kts 279°
2026-04-21 11:41 -38.09895 147.14422 24 ft 10 kts 279°
2026-04-21 11:42 -38.09882 147.14320 25 ft 13 kts 279°
2026-04-21 11:42 -38.09866 147.14195 26 ft 14 kts 278°
2026-04-21 11:42 -38.09852 147.14081 28 ft 11 kts 278°
2026-04-21 11:42 -38.09887 147.14036 28 ft 10 kts 188°
2026-04-21 11:43 -38.09921 147.13991 28 ft 9 kts 279°
2026-04-21 11:43 -38.09910 147.13898 28 ft 11 kts 278°
2026-04-21 11:43 -38.09897 147.13793 26 ft 13 kts 279°
2026-04-21 11:43 -38.09883 147.13678 27 ft 13 kts 279°
2026-04-21 11:44 -38.09877 147.13604 26 ft 4 kts 234°
2026-04-21 11:44 -38.09900 147.13594 26 ft 1 kts 188°
2026-04-21 11:44 -38.09901 147.13594 26 ft 0 kts 188°